Terminal Aerodrome Forecast
Issued by NWS

Home | Current Version | Previous Version | Graphics & Text | Print | Product List | Glossary On
Versions: 1 2 3 4 5 6 7 8 9 10 11 12 13 14 15 16 17
000
FTUS43 KTOP 130800 AAA
TAFMHK
TAF AMD
KMHK 130839Z 1309/1406 00000KT 2SM BR SKC
      TEMPO 1309/1313 3/4SM BR
     FM131400 16006KT P6SM SKC=

USA.gov is the U.S. government's official web portal to all federal, state and local government web resources and services.